Home > Weather > Cardiff > Past weeks

Flag for United Kingdom Weather for the Past 2 Weeks in Cardiff, Wales, United Kingdom

Now
41 °F

Light rain. Mostly cloudy.


Feels Like: 35 °F
Forecast: 37 / 42 °F
Wind: 9 mph from West

Location: Wales Airport

Current Time: Feb 9, 2016 at 3:54:29 AM

Latest Report: Feb 9, 2016 at 3:20 AM


Visibility: N/A

Pressure: 29.27 "Hg

Humidity: 93%

Dew point: 39 °F

Location of CardiffLocation

Historic Weather in Cardiff — Graph

°F

Cardiff Temperature Yesterday

Maximum temperature yesterday: 48 °F (at 3:20 PM)
Minimum temperature yesterday: 41 °F (at 11:50 PM)
Average temperature yesterday: 46 °F

High & Low Weather Summary for the Past Weeks

 TemperatureHumidityPressure
High57 °F (Jan 25, 11:50 AM)100% (Jan 27, 3:50 AM)30.42 "Hg (Jan 27, 3:50 AM)
Low37 °F (Jan 28, 1:50 AM)61% (Jan 30, 1:50 PM)28.97 "Hg (Feb 8, 5:50 AM)
Average48 °F86%29.84 "Hg
* Reported Jan 25 2:20 AM — Feb 9 2:20 AM, Cardiff, Weather by CustomWeather, © 2016

Note: Actual official high and low records may vary slightly from our data, if they occured in-between our weather recording intervals... More about our weather records

Advertising

Cardiff Weather History for the Previous 24 Hours

 ConditionsComfort  
Time TempWeatherWind HumidityBarometerVisibility
2:20 AM
Tue, Feb 9
43 °FPassing clouds.8 mph81%29.30 "HgN/A
1:20 AM43 °FPassing clouds.16 mph81%29.33 "HgN/A
12:50 AM43 °FPartly cloudy.18 mph81%29.33 "HgN/A
12:20 AM41 °FPassing clouds.15 mph81%29.36 "HgN/A
11:50 PM
Mon, Feb 8
41 °FLight rain. Partly cloudy.21 mph81%29.36 "HgN/A
11:20 PM43 °FPassing clouds.20 mph81%29.36 "HgN/A
10:20 PM43 °FQuite cool.22 mph76%29.36 "HgN/A
9:50 PM43 °FPassing clouds.21 mph76%29.36 "HgN/A
9:20 PM45 °FMostly cloudy.25 mph76%29.36 "HgN/A
8:50 PM45 °FPassing clouds.24 mph76%29.36 "HgN/A
8:20 PM45 °FPartly cloudy.22 mph71%29.36 "HgN/A
7:50 PM43 °FLight rain. Passing clouds.29 mph81%29.36 "Hg5 mi
7:20 PM45 °FPartly cloudy.29 mph76%29.33 "HgN/A
6:50 PM46 °FSprinkles. Partly cloudy.28 mph71%29.33 "HgN/A
6:20 PM46 °FPartly cloudy.29 mph76%29.33 "HgN/A
5:50 PM46 °FPassing clouds.29 mph76%29.30 "HgN/A
5:20 PM46 °FScattered showers. Partly cloudy.31 mph76%29.30 "Hg5 mi
4:50 PM46 °FScattered showers. Broken clouds.32 mph76%29.27 "Hg5 mi
4:20 PM46 °FScattered showers. Scattered clouds.32 mph82%29.24 "Hg4 mi
3:50 PM46 °FSprinkles. Mostly cloudy.32 mph82%29.21 "Hg5 mi
3:20 PM48 °FScattered showers. Broken clouds.37 mph76%29.18 "Hg5 mi
2:50 PM46 °FRain showers. Mostly cloudy.30 mph82%29.18 "Hg3 mi
2:20 PM46 °FMostly cloudy.33 mph82%29.15 "Hg6 mi
1:50 PM46 °FPartly sunny.36 mph87%29.12 "Hg5 mi
1:20 PM46 °FRain. Fog.37 mph82%29.09 "Hg2 mi
12:50 PM46 °FRain. Partly sunny.41 mph82%29.09 "Hg2 mi
12:20 PM46 °FRain. Partly sunny.33 mph82%29.06 "Hg2 mi
11:50 AM46 °FRain. Broken clouds.37 mph87%29.06 "Hg2 mi
11:20 AM46 °FLight rain. Fog.35 mph87%29.03 "Hg2 mi
10:50 AM46 °FRain showers. Broken clouds.31 mph87%29.03 "Hg4 mi
10:20 AM46 °FLight rain. Fog.33 mph82%29.00 "Hg2 mi
9:50 AM46 °FRain showers. Fog.30 mph82%29.00 "Hg3 mi
9:20 AM45 °FRain. Fog.31 mph87%29.00 "Hg2 mi
8:50 AM46 °FLight rain. Mostly cloudy.32 mph82%N/A4 mi
8:20 AM45 °FLight rain. Broken clouds.35 mph87%28.97 "Hg4 mi
7:50 AM46 °FScattered showers. Partly sunny.33 mph76%28.97 "HgN/A
7:20 AM46 °FLight rain. Passing clouds.32 mph76%28.97 "HgN/A
6:50 AM46 °FOvercast.30 mph76%28.97 "Hg6 mi
6:20 AM46 °FRain. Partly cloudy.30 mph76%28.97 "Hg3 mi
5:50 AM46 °FOvercast.31 mph76%28.97 "Hg5 mi
5:20 AM45 °FPassing clouds.30 mph81%29.00 "HgN/A
4:50 AM45 °FRain. Passing clouds.26 mph81%29.00 "Hg2 mi
4:20 AM46 °FPassing clouds.29 mph76%29.00 "HgN/A
3:20 AM43 °FThunderstorms. Passing clouds.25 mph87%29.03 "HgN/A
Weather by CustomWeather, © 2016

See weather overviewHow to use our weather pages